This is the latest recevied weather packets stored in our database for station/object KD7AWQ. If no packets are shown the sender has not sent any weather packets the latest 10 day(s).
| Time | Temp. | Humidity | Pressure | Rain* | Wind** | Luminosity | Snow |
|---|---|---|---|---|---|---|---|
| 1778070482 | 10.56° C | 47% | 1184.5 hPa | 0 mm | - | 4 W/m² | - |
| 1778070179 | 10.56° C | 48% | 1184.4 hPa | 0 mm | - | 2 W/m² | - |
| 1778069877 | 10.56° C | 47% | 1184.6 hPa | 0 mm | - | 1 W/m² | - |
| 1778069574 | 10.56° C | 47% | 1184.1 hPa | 0 mm | - | 0 W/m² | - |
| 1778069271 | 10.56° C | 47% | 1184.1 hPa | 0 mm | - | 0 W/m² | - |
| 1778068969 | 10.56° C | 47% | 1183.9 hPa | 0 mm | - | 0 W/m² | - |
| 1778068666 | 10.56° C | 46% | 1184.3 hPa | 0 mm | - | 0 W/m² | - |
| 1778068364 | 10.56° C | 46% | 1184.4 hPa | 0 mm | - | 0 W/m² | - |
| 1778068062 | 10.56° C | 45% | 1184.1 hPa | 0 mm | - | 0 W/m² | - |
| 1778067759 | 10.56° C | 45% | 1184.1 hPa | 0 mm | - | 0 W/m² | - |
| 1778067458 | 10.56° C | 44% | 1184.1 hPa | 0 mm | - | 0 W/m² | - |
| 1778067155 | 10.56° C | 45% | 1184.1 hPa | 0 mm | - | 0 W/m² | - |
| 1778066851 | 11.11° C | 44% | 1184.1 hPa | 0 mm | - | 0 W/m² | - |
| 1778066549 | 11.11° C | 44% | 1184.1 hPa | 0 mm | - | 0 W/m² | - |
| 1778066246 | 10.56° C | 44% | 1184.3 hPa | 0 mm | - | 0 W/m² | - |
| 1778065944 | 11.11° C | 44% | 1184.1 hPa | 0 mm | - | 0 W/m² | - |
| 1778065640 | 11.11° C | 44% | 1184.1 hPa | 0 mm | - | 0 W/m² | - |
| 1778065338 | 11.67° C | 42% | 1184 hPa | 0 mm | - | 0 W/m² | - |
| 1778065035 | 11.11° C | 43% | 1184 hPa | 0 mm | - | 0 W/m² | - |
| 1778064732 | 11.11° C | 44% | 1183.9 hPa | 0 mm | - | 0 W/m² | - |
| 1778064430 | 11.11° C | 43% | 1184.1 hPa | 0 mm | - | 0 W/m² | - |
| 1778064127 | 10.56° C | 46% | 1183.9 hPa | 0 mm | - | 0 W/m² | - |
| 1778063824 | 10.56° C | 48% | 1183.9 hPa | 0 mm | - | 0 W/m² | - |
| 1778063521 | 10° C | 48% | 1183.9 hPa | 0 mm | - | 0 W/m² | - |
| 1778063219 | 11.11° C | 48% | 1184 hPa | 0 mm | - | 0 W/m² | - |
* Rain latest hour (hover to see other rain measurements)
** Current wind speed in m/s (hover to see current wind gust speed)